#timestamp,LO_Frequency,Hit,StdDev 
1512158415.4,286047003.6,N
1512158435.2,286047005.9,N
1512158455.1,286047006.8,N
1512158456.0,286047006.8,N
1512158475.8,286047012.6,Y
1512158495.7,286047010.8,P
1512158515.5,286047003.0,N
1512158535.3,286047003.2,N
1512158555.2,286047003.3,N
1512158575.0,286047003.6,N
1512158575.9,286047003.6,N
1512158595.7,286047007.9,N
1512158615.6,286047005.4,N
1512158635.4,286047001.7,N
1512158655.3,286047004.0,N
1512158675.1,286046998.6,N
1512158676.0,286046998.6,N
1512158695.8,286046998.6,N
1512158715.7,286047000.3,N
1512158735.5,286047002.8,N
1512158755.3,286047002.2,N
1512158775.2,286047003.4,N
1512158795.0,286047005.9,N
1512158795.9,286047005.9,N
1512158815.8,286047000.6,N
1512158835.6,286046998.7,N
1512158855.4,286047003.2,N
1512158875.3,286047008.9,N
1512158895.1,286047010.5,Y
1512158915.9,286047003.8,P
1512158935.7,286047004.4,P
1512158955.5,286047004.0,P
1512158975.4,286047004.1,Y
1512158995.2,286046997.5,P
1512159015.0,286046996.9,N
1512159015.9,286046996.9,N
1512159035.8,286046999.5,N
1512159055.6,286046997.7,N
1512159075.5,286046997.8,N
1512159095.3,286046993.4,N
1512159115.1,286046996.7,N
1512159135.9,286047000.6,N
1512159155.7,286046996.7,N
1512159175.5,286047000.5,N
1512159195.4,286047001.9,N
1512159215.2,286046998.4,N
1512159235.1,286046998.4,N
1512159236.0,286046998.4,N
1512159255.8,286047000.7,N
1512159275.6,286047000.6,N
1512159295.5,286047007.6,Y
1512159315.3,286047004.9,P
1512159335.1,286047008.1,N
1512159355.9,286047006.2,N
1512159375.7,286047012.3,Y
1512159395.6,286047004.2,P
1512159415.4,286047002.2,P
1512159435.2,286046997.8,N
1512159455.1,286046993.6,N
1512159456.0,286046993.6,N
1512159475.8,286046993.7,N
1512159495.7,286046991.6,N
1512159515.5,286046987.0,N
1512159535.3,286046990.1,N
1512159555.2,286047001.2,N
1512159575.0,286047000.0,N
1512159575.9,286047000.0,N
1512159595.7,286046995.4,N
1512159615.6,286046993.4,N
1512159635.4,286046991.9,N
1512159655.3,286046994.5,N
1512159675.1,286046994.6,N
1512159676.0,286046994.6,N
1512159695.8,286047000.2,N
1512159715.7,286047004.4,N
1512159735.5,286047005.7,N
1512159755.3,286047003.6,N
1512159775.2,286047004.4,N
1512159795.0,286047007.3,N
1512159795.9,286047007.3,N
1512159815.8,286047005.4,N
1512159835.6,286047001.9,N
1512159855.4,286046998.5,N
1512159875.3,286047002.3,N
1512159895.1,286046988.9,N
1512159915.8,286046990.5,N
1512159935.7,286046991.1,N
1512159955.5,286046992.9,N
1512159975.4,286046992.2,N
1512159995.2,286047001.1,N
1512160015.0,286047003.9,N
1512160015.9,286047003.9,N
1512160035.8,286047000.9,N
1512160055.6,286047003.4,N
1512160075.5,286047003.8,N
1512160095.3,286047001.3,N
1512160115.1,286047006.3,N
1512160135.9,286047009.4,N
1512160155.7,286047010.5,N
1512160175.5,286047009.0,N
1512160195.4,286047006.5,N
1512160215.2,286047010.4,N
1512160235.1,286047006.9,N
1512160236.0,286047006.9,N
1512160255.8,286047010.4,N
1512160275.6,286047008.9,N
1512160295.5,286047007.0,N
1512160315.3,286047001.1,N
1512160335.1,286046998.1,N
1512160355.9,286047004.2,N
1512160375.7,286047007.2,N
1512160395.6,286047013.8,N
1512160415.4,286047011.3,N
1512160435.2,286047012.4,N
1512160455.1,286047009.6,N
1512160456.0,286047009.6,N
1512160475.8,286047008.2,N
1512160495.6,286047006.3,N
1512160515.5,286047012.0,N
1512160535.3,286047010.1,N
1512160555.2,286047010.4,N
1512160575.9,286047014.0,Y
1512160595.7,286047004.2,P
1512160615.6,286047003.0,N
1512160635.4,286047004.9,N
1512160655.2,286047000.3,N
1512160675.1,286046998.1,N
1512160676.0,286046998.1,N
1512160695.8,286047006.0,N
1512160715.7,286047000.7,N
1512160735.5,286046998.8,N
1512160755.3,286046997.1,N
1512160775.2,286046997.1,N
1512160795.0,286046999.5,N
1512160795.9,286046999.5,N
1512160815.7,286047001.1,N
1512160835.6,286046997.1,N
1512160855.4,286046992.0,N
1512160875.3,286046998.8,N
1512160895.1,286047001.0,N
1512160896.0,286047001.0,N
1512160915.8,286047000.6,N
1512160935.7,286046996.7,N
1512160955.5,286046998.3,N
1512160975.3,286046998.7,N
1512160995.2,286046996.8,N
1512161015.0,286046998.9,N
1512161015.9,286046998.9,N
1512161035.8,286046998.3,N
1512161055.6,286046996.4,N
1512161075.4,286046995.5,N
1512161095.3,286046999.1,N
1512161115.1,286046998.7,N
1512161135.8,286046997.7,N
1512161155.7,286046999.5,N
1512161175.5,286046999.3,N
1512161195.4,286046998.6,N
1512161215.2,286047001.0,N
1512161235.0,286046996.6,N
1512161235.9,286046996.6,N
1512161255.8,286046995.3,N
1512161275.6,286046994.0,Y
1512161295.5,286046992.1,P
1512161315.3,286046995.5,N
1512161335.1,286047004.1,N
1512161355.9,286046996.4,N
1512161375.7,286046984.8,Y
1512161395.5,286046991.0,P
1512161415.4,286046997.0,N
1512161435.2,286046994.6,N
1512161455.1,286046986.6,Y
1512161456.0,286046986.6,P
1512161475.8,286046984.2,P
1512161495.6,286046982.8,P
1512161515.5,286046981.4,Y
1512161535.3,286046987.1,P
1512161555.2,286046984.6,P
1512161575.9,286046982.6,P
1512161595.7,286046980.7,Y
1512161615.6,286046992.9,P
1512161635.4,286046988.8,N
1512161655.2,286046987.9,P
1512161675.1,286046986.7,Y
1512161676.0,286046986.7,P
1512161695.8,286046993.9,P
1512161715.7,286046994.7,N
1512161735.5,286047005.1,N
1512161755.3,286047009.2,N
1512161775.2,286047019.0,N
1512161795.0,286047029.2,N
1512161795.9,286047029.2,N
1512161815.8,286047034.3,N
1512161835.6,286047035.6,N
1512161855.4,286047036.3,N
1512161875.3,286047039.0,N
1512161895.1,286047035.1,N
1512161915.8,286047031.0,N
1512161935.7,286047030.6,N
1512161955.5,286047033.7,N
1512161975.4,286047036.4,N
1512161995.2,286047042.6,N
